This is the latest recevied weather packets stored in our database for station/object 9D9-WX. If no packets are shown the sender has not sent any weather packets the latest 1 day(s).
| Time | Temp. | Humidity | Pressure | Rain* | Wind** | Luminosity | Snow |
|---|---|---|---|---|---|---|---|
| 1778022910 | 11.11° C | 34% | 980.9 hPa | 0 mm | 4.47 m/s, 289° | - | - |
| 1778022027 | 11.11° C | 34% | 980.9 hPa | 0 mm | 4.92 m/s, 289° | - | - |
| 1778021110 | 11.11° C | 35% | 980.8 hPa | 0 mm | 5.36 m/s, 289° | - | - |
| 1778020227 | 11.67° C | 36% | 981.2 hPa | 0 mm | 5.36 m/s, 288° | - | - |
| 1778019309 | 11.67° C | 36% | 981.2 hPa | 0 mm | 5.81 m/s, 285° | - | - |
| 1778018431 | 12.22° C | 36% | 981.2 hPa | 0 mm | 5.81 m/s, 281° | - | - |
| 1778017509 | 12.22° C | 37% | 980.9 hPa | 0 mm | 5.81 m/s, 280° | - | - |
| 1778016628 | 11.67° C | 36% | 980.6 hPa | 0 mm | 6.26 m/s, 279° | - | - |
| 1778015709 | 12.22° C | 36% | 980.6 hPa | 0 mm | 6.26 m/s, 277° | - | - |
| 1778014831 | 12.22° C | 36% | 980.6 hPa | 0 mm | 6.26 m/s, 277° | - | - |
| 1778013909 | 12.22° C | 37% | 981 hPa | 0 mm | 6.71 m/s, 276° | - | - |
| 1778013028 | 12.22° C | 33% | 980 hPa | 0 mm | 6.71 m/s, 275° | - | - |
| 1778012109 | 12.22° C | 33% | 980 hPa | 0 mm | 6.26 m/s, 275° | - | - |
| 1778011230 | 12.78° C | 33% | 980 hPa | 0 mm | 6.71 m/s, 277° | - | - |
| 1778010309 | 12.78° C | 35% | 980 hPa | 0 mm | 6.71 m/s, 274° | - | - |
| 1778009423 | 12.78° C | 35% | 980 hPa | 0 mm | 6.26 m/s, 268° | - | - |
| 1778008511 | 12.78° C | 35% | 980 hPa | 0 mm | 6.26 m/s, 267° | - | - |
| 1778007627 | 12.78° C | 35% | 980 hPa | 0 mm | 6.26 m/s, 267° | - | - |
| 1778006712 | 12.78° C | 33% | 980.6 hPa | 0 mm | 6.26 m/s, 266° | - | - |
| 1778005829 | 13.33° C | 36% | 979.9 hPa | 0 mm | 6.26 m/s, 271° | - | - |
| 1778004912 | 13.33° C | 36% | 979.9 hPa | 0 mm | 5.81 m/s, 274° | - | - |
| 1778004031 | 13.33° C | 36% | 979.9 hPa | 0 mm | 6.26 m/s, 271° | - | - |
| 1778003112 | 13.33° C | 36% | 979.2 hPa | 0 mm | 6.26 m/s, 268° | - | - |
| 1778002223 | 12.78° C | 36% | 978.4 hPa | 0 mm | 5.81 m/s, 274° | - | - |
| 1778001312 | 12.78° C | 36% | 978.4 hPa | 0 mm | 5.81 m/s, 281° | - | - |
* Rain latest hour (hover to see other rain measurements)
** Current wind speed in m/s (hover to see current wind gust speed)